Eden Prairie, MN

10:24 AM CST on December 04, 2016 (GMT -0600)
Flying Cloud

Weather History for KFCM - June, 2012

Change the Weather History Date:

Thursday, June 21, 2012

  Actual Average Record
Temperature  
Mean Temperature 69 °F -  
Max Temperature 78 °F 77 °F 89 °F (2005)
Min Temperature 60 °F 57 °F 55 °F (2001)
Cooling Degree Days 4    
Growing Degree Days 19 (Base 50)    
Moisture  
Dew Point 56 °F    
Average Humidity 66    
Maximum Humidity 93    
Minimum Humidity 42    
Precipitation  
Precipitation 0.01 in - - ()
Sea Level Pressure  
Sea Level Pressure 29.95 in    
Wind  
Wind Speed 9 mph (West)    
Max Wind Speed 17 mph    
Max Gust Speed 23 mph    
Visibility 10 miles    
Events      
Averages and records for this station are not official NWS values.
T = Trace of Precipitation, MM = Missing Value Source: NWS Daily Summary

Daily Weather History Graph

Daily Weather History Graph

Search for Another Location

Airport or City:

Trip Planner

Search our weather history database for the weather conditions in past years. The results will help you decide how hot, cold, wet, or windy it might be!

Date:

Astronomy

Jun. 21, 2012 Rise Set
Actual Time 5:27 AM CDT 9:03 PM CDT
Civil Twilight 4:50 AM CDT 9:40 PM CDT
Nautical Twilight 4:01 AM CDT 10:30 PM CDT
Astronomical Twilight 2:55 AM CDT 11:35 PM CDT
Moon 7:31 AM CDT (6/21) 10:20 PM CDT (6/21)
Length of Visible Light 16h 50m
Length of Day
15h 35m
Waxing Crescent, 4% of the Moon is Illuminated
Jun 21
Waxing Crescent
Jun 26
First Quarter
Jul 3
Full
Jul 10
Last Quarter
Jul 18
New

Hourly Weather History & Observations

Time (CDT) Temp. Dew Point Humidity Pressure Visibility Wind Dir Wind Speed Gust Speed Precip Events Conditions
12:53 AM 63.0 °F 61.0 °F 93% 29.88 in 10.0 mi WSW 5.8 mph - N/A   Clear
1:53 AM 63.0 °F 61.0 °F 93% 29.88 in 10.0 mi SW 9.2 mph - N/A   Clear
2:53 AM 62.1 °F 60.1 °F 93% 29.88 in 9.0 mi SW 8.1 mph - N/A   Clear
3:53 AM 61.0 °F 59.0 °F 93% 29.88 in 10.0 mi SW 10.4 mph - N/A   Clear
4:53 AM 60.1 °F 57.9 °F 93% 29.88 in 10.0 mi WSW 8.1 mph - N/A   Clear
5:53 AM 61.0 °F 55.9 °F 83% 29.89 in 10.0 mi WNW 12.7 mph - 0.01 in   Clear
6:53 AM 62.1 °F 55.0 °F 78% 29.92 in 10.0 mi WNW 11.5 mph - N/A   Clear
7:53 AM 64.0 °F 55.9 °F 75% 29.94 in 10.0 mi WNW 8.1 mph - N/A   Clear
8:53 AM 66.0 °F 55.9 °F 70% 29.97 in 10.0 mi NW 12.7 mph 18.4 mph N/A   Partly Cloudy
9:45 AM 66.2 °F 55.4 °F 68% 29.98 in 10.0 mi NW 9.2 mph - N/A   Overcast
9:53 AM 66.9 °F 55.9 °F 68% 29.98 in 10.0 mi NW 12.7 mph - N/A   Mostly Cloudy
10:53 AM 69.1 °F 55.9 °F 63% 29.99 in 10.0 mi West 9.2 mph 23.0 mph N/A   Scattered Clouds
11:53 AM 72.0 °F 55.0 °F 55% 29.99 in 10.0 mi WNW 11.5 mph - N/A   Partly Cloudy
12:53 PM 73.0 °F 55.0 °F 53% 30.00 in 10.0 mi NW 17.3 mph 23.0 mph N/A   Partly Cloudy
1:53 PM 73.9 °F 53.1 °F 48% 29.99 in 10.0 mi WNW 9.2 mph - N/A   Scattered Clouds
2:53 PM 75.0 °F 52.0 °F 44% 29.98 in 10.0 mi NW 12.7 mph 19.6 mph N/A   Scattered Clouds
3:53 PM 75.9 °F 52.0 °F 43% 29.97 in 10.0 mi NW 16.1 mph 23.0 mph N/A   Mostly Cloudy
4:53 PM 77.0 °F 53.1 °F 43% 29.96 in 10.0 mi NW 16.1 mph 20.7 mph N/A   Partly Cloudy
5:53 PM 78.1 °F 53.1 °F 42% 29.96 in 10.0 mi WNW 13.8 mph - N/A   Scattered Clouds
6:53 PM 75.0 °F 54.0 °F 48% 29.96 in 10.0 mi West 5.8 mph - N/A   Partly Cloudy
7:53 PM 73.9 °F 54.0 °F 50% 29.96 in 10.0 mi West 8.1 mph - N/A   Clear
8:53 PM 71.1 °F 54.0 °F 55% 29.96 in 10.0 mi West 4.6 mph - N/A   Clear
9:53 PM 69.1 °F 55.0 °F 61% 29.98 in 10.0 mi SW 3.5 mph - N/A   Clear
10:53 PM 66.0 °F 55.9 °F 70% 29.98 in 10.0 mi WSW 3.5 mph - N/A   Clear
11:53 PM 64.9 °F 57.0 °F 75% 29.98 in 10.0 mi WSW 4.6 mph - N/A   Clear